Terminal Aerodrome Forecast
Issued by NWS Burlington, VT

Current Version | Previous Version | Text Only | Print | Product List | Glossary On
Versions: 1 2 3 4 5 6 7 8 9 10 11 12 13 14 15 16 17 18
000 FTUS41 KBTV 300523 TAFBTV TAF KBTV 300523Z 3006/0106 16003KT P6SM SCT250 TEMPO 3008/3010 3SM BR SCT002 FM301300 18007KT P6SM SCT250 FM302000 17007KT P6SM -SHRA BKN040 OVC100=

USA.gov is the U.S. government's official web portal to all federal, state and local government web resources and services.